Location: Bosmont
(49.7318°N, 3.8587°E)
Time: 11:57:33
(UTC+00:00)

ADEOS - Pass Details

Date: 08 February 2023
Orbit: 792 x 793 km, 98.9° (Epoch: 21 March)

Event Time Altitude Azimuth Distance (km) Brightness Sun altitude
Rises 17:38:13 0° 174° (S) 3,281 6.9 -8.1°
Reaches altitude 10° 17:40:34 10° 178° (S) 2,356 6.2 -8.4°
Maximum altitude 17:45:42 59° 258° (WSW) 912 4.3 -9.3°
Drops below altitude 10° 17:50:53 10° 338° (NNW) 2,372 6.2 -10.1°
Sets 17:53:15 0° 342° (NNW) 3,306 6.9 -10.4°
